• In Sweden
  • List of Countries
  • For 7 days
  • Water Temperature
  • Satellite Maps
  • Weather Map
  • Weather Widgets
  • user-avatar
    Login

    Hourly Weather Liverpool

    Today, 19 September, Tuesday

    Time Temperature Precipitation Wind Pressure Humidity
    00:00 +10°C° 0 mm 1 mps 764 mmHg 89%
    01:00 +10°C° 0 mm 1 mps 764 mmHg 89%
    02:00 +9°C° 0 mm 1 mps 764 mmHg 89%
    03:00 +9°C° 0 mm 1 mps 764 mmHg 89%
    04:00 +9°C° 0 mm 1 mps 764 mmHg 89%
    05:00 +9°C° 0 mm 1 mps 764 mmHg 89%
    06:00 +9°C° 0 mm 1 mps 764 mmHg 89%
    07:00 +10°C° 0 mm 1 mps 764 mmHg 85%
    08:00 +12°C° 0 mm 1 mps 764 mmHg 81%
    09:00 +13°C° 0 mm 1 mps 764 mmHg 77%
    10:00 +14°C° 0 mm 1 mps 764 mmHg 72%
    11:00 +15°C° 0 mm 1 mps 764 mmHg 66%
    12:00 +17°C° 0 mm 2 mps 764 mmHg 61%
    13:00 +17°C° 0 mm 2 mps 764 mmHg 61%
    14:00 +17°C° 0 mm 2 mps 764 mmHg 61%
    15:00 +17°C° 0 mm 2 mps 763 mmHg 61%
    16:00 +16°C° 0 mm 2 mps 763 mmHg 65%
    17:00 +15°C° 0 mm 2 mps 763 mmHg 70%
    18:00 +14°C° 0 mm 2 mps 763 mmHg 74%
    19:00 +14°C° 0 mm 2 mps 763 mmHg 77%
    20:00 +13°C° 0 mm 2 mps 763 mmHg 81%
    21:00 +12°C° 0 mm 2 mps 763 mmHg 84%
    22:00 +11°C° 0 mm 3 mps 763 mmHg 85%
    23:00 +11°C° 0 mm 3 mps 763 mmHg 87%

    Tomorrow, 20 September, Wednesday

    Time Temperature Precipitation Wind Pressure Humidity
    00:00 +11°C° 0 mm 3 mps 763 mmHg 88%
    01:00 +11°C° 0 mm 3 mps 762 mmHg 89%
    02:00 +11°C° 0 mm 3 mps 762 mmHg 90%
    03:00 +11°C° 0 mm 3 mps 762 mmHg 91%
    04:00 +11°C° 0 mm 3 mps 761 mmHg 91%
    05:00 +11°C° 0 mm 4 mps 761 mmHg 92%
    06:00 +11°C° 0 mm 4 mps 761 mmHg 92%
    07:00 +12°C° 0 mm 4 mps 760 mmHg 90%
    08:00 +13°C° 0 mm 4 mps 760 mmHg 88%
    09:00 +14°C° 0 mm 4 mps 760 mmHg 85%
    10:00 +15°C° 0 mm 5 mps 760 mmHg 84%
    11:00 +15°C° 0 mm 5 mps 759 mmHg 83%
    12:00 +16°C° 0 mm 5 mps 759 mmHg 81%
    13:00 +16°C° 0 mm 5 mps 759 mmHg 81%
    14:00 +16°C° 0 mm 5 mps 758 mmHg 81%
    15:00 +17°C° 0 mm 5 mps 758 mmHg 81%
    16:00 +16°C° 0.3 mm 6 mps 757 mmHg 83%
    17:00 +15°C° 0.3 mm 6 mps 757 mmHg 85%
    18:00 +15°C° 0.3 mm 7 mps 757 mmHg 87%
    19:00 +15°C° 0.2 mm 7 mps 756 mmHg 88%
    20:00 +15°C° 0.2 mm 7 mps 756 mmHg 89%
    21:00 +15°C° 0.2 mm 7 mps 756 mmHg 90%
    22:00 +15°C° 0.1 mm 7 mps 756 mmHg 90%
    23:00 +15°C° 0.1 mm 7 mps 756 mmHg 90%

    Day after tomorrow, 21 September, Thursday

    Time Temperature Precipitation Wind Pressure Humidity
    00:00 +15°C° 0.1 mm 7 mps 756 mmHg 90%
    01:00 +15°C° 0.1 mm 6 mps 756 mmHg 90%
    02:00 +15°C° 0.1 mm 6 mps 756 mmHg 90%
    03:00 +15°C° 0.1 mm 6 mps 756 mmHg 89%
    04:00 +14°C° 0.8 mm 6 mps 756 mmHg 90%
    05:00 +14°C° 0.8 mm 5 mps 757 mmHg 91%
    06:00 +13°C° 0.8 mm 5 mps 757 mmHg 92%
    07:00 +13°C° 1.3 mm 5 mps 757 mmHg 92%
    08:00 +12°C° 1.3 mm 4 mps 757 mmHg 91%
    09:00 +12°C° 1.3 mm 4 mps 758 mmHg 91%
    10:00 +12°C° 0.6 mm 3 mps 758 mmHg 88%
    11:00 +12°C° 0.6 mm 3 mps 758 mmHg 85%
    12:00 +13°C° 0.6 mm 3 mps 759 mmHg 82%
    13:00 +13°C° 0.1 mm 3 mps 759 mmHg 78%
    14:00 +14°C° 0.1 mm 3 mps 759 mmHg 75%
    15:00 +14°C° 0.1 mm 4 mps 759 mmHg 72%
    16:00 +14°C° 0 mm 3 mps 760 mmHg 75%
    17:00 +13°C° 0 mm 3 mps 760 mmHg 78%
    18:00 +12°C° 0 mm 3 mps 761 mmHg 81%
    19:00 +11°C° 0 mm 3 mps 761 mmHg 82%
    20:00 +10°C° 0 mm 3 mps 762 mmHg 84%
    21:00 +10°C° 0 mm 2 mps 762 mmHg 85%
    22:00 +9°C° 0 mm 3 mps 762 mmHg 86%
    23:00 +9°C° 0 mm 3 mps 763 mmHg 87%

    22 September, Friday

    Time Temperature Precipitation Wind Pressure Humidity
    00:00 +9°C° 0 mm 3 mps 763 mmHg 87%
    01:00 +9°C° 0 mm 3 mps 763 mmHg 88%
    02:00 +8°C° 0 mm 3 mps 763 mmHg 89%
    03:00 +8°C° 0 mm 3 mps 763 mmHg 90%
    04:00 +8°C° 0 mm 3 mps 763 mmHg 90%
    05:00 +8°C° 0 mm 3 mps 763 mmHg 90%
    06:00 +8°C° 0 mm 3 mps 763 mmHg 91%
    07:00 +8°C° 0 mm 4 mps 764 mmHg 88%
    08:00 +11°C° 0 mm 4 mps 764 mmHg 84%
    09:00 +12°C° 0 mm 5 mps 764 mmHg 81%
    10:00 +13°C° 0 mm 5 mps 764 mmHg 79%
    11:00 +14°C° 0 mm 5 mps 764 mmHg 76%
    12:00 +14°C° 0 mm 5 mps 763 mmHg 74%
    13:00 +15°C° 0.1 mm 5 mps 763 mmHg 73%
    14:00 +15°C° 0.1 mm 5 mps 763 mmHg 72%
    15:00 +15°C° 0.1 mm 6 mps 763 mmHg 72%
    16:00 +15°C° 0.1 mm 5 mps 763 mmHg 73%
    17:00 +15°C° 0.1 mm 5 mps 763 mmHg 75%
    18:00 +14°C° 0.1 mm 5 mps 763 mmHg 77%
    19:00 +14°C° 0 mm 5 mps 763 mmHg 78%
    20:00 +14°C° 0 mm 5 mps 763 mmHg 79%
    21:00 +14°C° 0 mm 5 mps 764 mmHg 80%
    22:00 +13°C° 0 mm 5 mps 763 mmHg 82%
    23:00 +13°C° 0 mm 5 mps 763 mmHg 84%

    23 September, Saturday

    Time Temperature Precipitation Wind Pressure Humidity
    00:00 +12°C° 0 mm 5 mps 763 mmHg 86%
    01:00 +12°C° 0 mm 5 mps 763 mmHg 87%
    02:00 +10°C° 0 mm 5 mps 763 mmHg 88%
    03:00 +10°C° 0 mm 5 mps 763 mmHg 89%
    04:00 +9°C° 0 mm 5 mps 763 mmHg 88%
    05:00 +9°C° 0 mm 5 mps 763 mmHg 87%
    06:00 +9°C° 0 mm 5 mps 763 mmHg 86%
    07:00 +10°C° 0 mm 5 mps 763 mmHg 81%
    08:00 +12°C° 0 mm 5 mps 763 mmHg 75%
    09:00 +13°C° 0 mm 5 mps 763 mmHg 70%
    10:00 +14°C° 0 mm 5 mps 763 mmHg 65%
    11:00 +16°C° 0 mm 5 mps 763 mmHg 60%
    12:00 +17°C° 0 mm 5 mps 762 mmHg 55%
    13:00 +17°C° 0 mm 5 mps 762 mmHg 56%
    14:00 +17°C° 0 mm 5 mps 762 mmHg 57%
    15:00 +19°C° 0 mm 5 mps 761 mmHg 57%
    16:00 +17°C° 0 mm 5 mps 761 mmHg 63%
    17:00 +16°C° 0 mm 5 mps 761 mmHg 69%
    18:00 +15°C° 0 mm 4 mps 761 mmHg 75%
    19:00 +14°C° 0 mm 4 mps 761 mmHg 79%
    20:00 +14°C° 0 mm 5 mps 761 mmHg 82%
    21:00 +13°C° 0 mm 5 mps 761 mmHg 85%
    22:00 +14°C° 0 mm 5 mps 761 mmHg 85%
    23:00 +14°C° 0 mm 5 mps 760 mmHg 85%

    24 September, Sunday

    Time Temperature Precipitation Wind Pressure Humidity
    00:00 +14°C° 0 mm 5 mps 760 mmHg 85%
    01:00 +14°C° 0 mm 5 mps 760 mmHg 84%
    02:00 +14°C° 0 mm 5 mps 760 mmHg 83%
    03:00 +14°C° 0 mm 5 mps 759 mmHg 82%
    04:00 +14°C° 0.1 mm 5 mps 759 mmHg 84%
    05:00 +13°C° 0.1 mm 5 mps 759 mmHg 86%
    06:00 +13°C° 0.1 mm 5 mps 759 mmHg 89%
    07:00 +14°C° 0.4 mm 5 mps 759 mmHg 88%
    08:00 +14°C° 0.4 mm 5 mps 760 mmHg 88%
    09:00 +15°C° 0.4 mm 5 mps 760 mmHg 87%
    10:00 +15°C° 0.6 mm 4 mps 760 mmHg 88%
    11:00 +15°C° 0.6 mm 4 mps 760 mmHg 89%
    12:00 +15°C° 0.6 mm 4 mps 761 mmHg 90%
    13:00 +16°C° 0.3 mm 3 mps 761 mmHg 90%
    14:00 +16°C° 0.3 mm 3 mps 761 mmHg 91%
    15:00 +16°C° 0.3 mm 2 mps 761 mmHg 92%
    16:00 +16°C° 0.1 mm 2 mps 762 mmHg 93%
    17:00 +16°C° 0.1 mm 2 mps 762 mmHg 93%
    18:00 +15°C° 0.1 mm 2 mps 762 mmHg 94%
    19:00 +15°C° 0.1 mm 2 mps 763 mmHg 95%
    20:00 +15°C° 0.1 mm 2 mps 763 mmHg 95%
    21:00 +15°C° 0.1 mm 2 mps 764 mmHg 96%
    22:00 +14°C° 0 mm 2 mps 764 mmHg 96%
    23:00 +13°C° 0 mm 3 mps 764 mmHg 96%
    Show more